DW8425 Weather Reports


Display with metric or nautical units.
time (UTC)temp
F
wind
direction
speed
MPH
gust
MPH
rain 1hr
in
rain 24hr
in
rain mn
in
humidity
%
barometer
mb
20260903110022 46 137 4.0 9.0 0.00 0.07 0.00 63 1008.4
20260903104520 46 158 0.0 4.0 0.00 0.07 0.00 64 1008.5
20260903103020 46 152 0.0 4.0 0.00 0.07 0.00 63 1008.4
20260903101516 45 163 1.0 6.0 0.00 0.07 0.00 63 1008.3
20260903100014 45 142 0.0 1.0 0.00 0.07 0.00 61 1008.1
20260903094512 44 327 0.0 1.0 0.00 0.07 0.00 62 1008.1
20260903093012 44 327 0.0 2.0 0.00 0.07 0.00 61 1008.0
20260903091513 43 327 0.0 0.0 0.00 0.07 0.00 61 1007.9
20260903090010 43 327 0.0 0.0 0.00 0.07 0.00 61 1007.8
20260903084509 44 327 0.0 1.0 0.00 0.07 0.00 59 1007.8
20260903083010 44 327 0.0 0.0 0.00 0.07 0.00 59 1008.0
20260903081508 44 327 0.0 0.0 0.00 0.07 0.00 59 1007.9
20260903080008 43 327 0.0 1.0 0.00 0.07 0.00 58 1008.0
20260903074507 43 327 0.0 2.0 0.00 0.07 0.00 59 1007.9
20260903073004 43 28 0.0 1.0 0.00 0.07 0.00 58 1007.8
20260903071504 43 355 0.0 1.0 0.00 0.07 0.00 58 1007.7
20260903070013 43 355 0.0 3.0 0.00 0.07 0.00 58 1007.7
20260903064502 43 105 0.0 0.0 0.00 0.07 0.00 57 1007.8
20260903063108 43 109 0.0 1.0 0.00 0.07 0.00 56 1007.7
20260903061608 44 109 0.0 0.0 0.00 0.07 0.00 54 1007.8
20260903060054 44 123 0.0 1.0 0.00 0.07 0.00 53 1007.8
20260903054601 45 117 0.0 1.0 0.00 0.07 0.07 53 1008.0
20260903053056 46 163 0.0 1.0 0.00 0.07 0.07 52 1008.4
20260903051555 46 169 0.0 2.0 0.00 0.07 0.07 51 1008.5
20260903050053 47 143 0.0 2.0 0.00 0.07 0.07 50 1008.6
20260903044557 47 136 0.0 2.0 0.00 0.07 0.07 50 1008.6
20260903043052 47 146 0.0 2.0 0.00 0.07 0.07 50 1008.6
20260903041608 48 146 0.0 1.0 0.00 0.07 0.07 48 1008.6
20260903040051 48 146 0.0 1.0 0.00 0.07 0.07 47 1008.5
20260903034550 48 146 0.0 1.0 0.00 0.07 0.07 47 1008.4
20260903033049 49 146 0.0 0.0 0.00 0.07 0.07 46 1008.4
20260903031548 50 146 0.0 1.0 0.00 0.07 0.07 43 1008.2
20260903030047 51 146 0.0 1.0 0.00 0.07 0.07 40 1008.3
20260903024546 52 146 1.0 4.0 0.00 0.07 0.07 39 1008.0
20260903023046 53 167 1.0 5.0 0.00 0.07 0.07 39 1007.8
20260903021544 54 147 2.0 6.0 0.00 0.07 0.07 36 1007.7
20260903020050 55 151 5.0 12.0 0.00 0.07 0.07 35 1007.6
20260903014602 56 158 2.0 7.0 0.00 0.11 0.07 36 1007.6
20260903013051 56 150 3.0 8.0 0.00 0.11 0.07 35 1007.5
20260903011607 57 211 4.0 6.0 0.00 0.11 0.07 33 1007.5
20260903010057 57 163 5.0 11.0 0.00 0.11 0.07 32 1007.4
20260903004539 58 162 0.0 10.0 0.00 0.11 0.07 32 1007.2
20260903003042 58 187 1.0 11.0 0.00 0.11 0.07 32 1007.3
20260903001549 58 171 5.0 13.0 0.00 0.11 0.07 31 1007.5
20260903000037 59 163 9.0 13.0 0.00 0.11 0.07 30 1007.5
20260902234541 60 177 1.0 14.0 0.00 0.11 0.07 30 1007.3
20260902233037 60 163 3.0 9.0 0.00 0.11 0.07 31 1007.2
20260902231544 60 186 1.0 5.0 0.00 0.11 0.07 32 1007.0
20260902230038 60 144 6.0 11.0 0.00 0.11 0.07 29 1007.0
20260902224532 61 178 6.0 17.0 0.00 0.11 0.07 29 1007.1
20260902223039 61 151 12.0 18.0 0.00 0.11 0.07 28 1007.1
20260902221532 60 143 7.0 17.0 0.00 0.11 0.07 30 1007.0
20260902220035 61 168 8.0 20.0 0.00 0.11 0.07 30 1006.9
20260902214531 61 138 9.0 20.0 0.00 0.11 0.07 31 1006.8
20260902213029 62 145 9.0 16.0 0.00 0.11 0.07 30 1006.8
20260902211530 62 148 7.0 16.0 0.00 0.11 0.07 32 1006.7
20260902210027 61 140 8.0 15.0 0.00 0.11 0.07 33 1006.6
20260902204527 61 169 3.0 14.0 0.00 0.11 0.07 36 1006.5
20260902203026 61 215 1.0 16.0 0.00 0.11 0.07 38 1006.3
20260902201526 61 165 2.0 18.0 0.00 0.11 0.07 37 1006.0
20260902200027 61 152 10.0 19.0 0.00 0.11 0.07 34 1005.8
20260902194537 61 130 7.0 15.0 0.00 0.11 0.07 34 1005.7
20260902193022 61 173 4.0 14.0 0.00 0.11 0.07 35 1005.8
20260902191517 58 292 0.0 4.0 0.00 0.11 0.07 46 1005.8
20260902190016 57 280 0.0 3.0 0.00 0.11 0.07 52 1005.8
20260902184519 57 200 1.0 3.0 0.00 0.11 0.07 50 1006.0
20260902183012 56 185 1.0 4.0 0.00 0.11 0.07 58 1006.1
20260902181509 55 150 3.0 7.0 0.00 0.11 0.07 60 1006.3
20260902180007 54 169 2.0 8.0 0.00 0.11 0.07 63 1006.4
20260902174503 53 134 1.0 7.0 0.00 0.11 0.07 68 1006.4
20260902173100 52 130 0.0 3.0 0.00 0.11 0.07 75 1006.4
20260902171557 50 153 2.0 4.0 0.00 0.11 0.07 77 1006.8
20260902170051 48 360 0.0 6.0 0.00 0.11 0.07 91 1006.7
20260902164550 45 312 0.0 2.0 0.00 0.11 0.07 98 1006.6
20260902163047 43 299 0.0 0.0 0.02 0.11 0.07 97 1007.0
20260902161545 42 303 0.0 1.0 0.06 0.11 0.07 97 1006.9
20260902160048 42 323 1.0 4.0 0.06 0.11 0.07 97 1006.2
20260902154541 42 360 0.0 4.0 0.07 0.11 0.07 97 1006.1
20260902153045 42 340 1.0 5.0 0.05 0.09 0.05 97 1005.9
20260902151547 42 258 1.0 4.0 0.01 0.05 0.01 98 1005.7
20260902150038 41 360 0.0 3.0 0.00 0.04 0.00 97 1005.0
20260902144537 41 360 0.0 5.0 0.00 0.04 0.00 97 1005.5
20260902143036 40 360 0.0 1.0 0.00 0.04 0.00 97 1003.4
20260902141539 39 360 0.0 2.0 0.00 0.04 0.00 97 1003.9
20260902140034 39 178 0.0 0.0 0.00 0.04 0.00 97 1004.0
20260902134539 39 175 0.0 1.0 0.00 0.04 0.00 97 1003.7
20260902133034 38 179 0.0 2.0 0.00 0.04 0.00 97 1003.5
20260902131538 38 177 0.0 1.0 0.00 0.04 0.00 97 1003.4
20260902130033 38 182 0.0 0.0 0.00 0.04 0.00 96 1003.4
20260902124533 38 180 0.0 1.0 0.00 0.04 0.00 96 1003.3
20260902123032 38 179 0.0 0.0 0.00 0.04 0.00 96 1003.2
20260902121531 38 180 0.0 1.0 0.00 0.04 0.00 96 1003.4
20260902120030 38 360 0.0 1.0 0.00 0.04 0.00 96 1003.4
20260902114538 38 360 0.0 2.0 0.00 0.04 0.00 96 1003.3
20260902113028 38 185 0.0 1.0 0.00 0.04 0.00 96 1003.6
20260902111528 38 360 0.0 2.0 0.00 0.04 0.00 96 1003.5